Regional Weather Roundup
Issued by NWS

Home | Current Version | Previous Version | Graphics & Text | Print | Product List | Glossary On
Versions: 1 2 3 4 5 6 7 8 9 10 11 12 13 14 15 16 17 18 19 20 21 22 23 24 25 26 27 28 29 30 31 32 33 34 35 36 37 38 39 40 41 42 43 44 45 46 47 48 49 50
000
ASUS43 KMKX 210400
RWRWI

WISCONSIN REGIONAL WEATHER ROUNDUP
NATIONAL WEATHER SERVICE MILWAUKEE/SULLIVAN WI
1000 PM CST MON NOV 20 2017

NOTE: "FAIR" INDICATES FEW OR NO CLOUDS BELOW 12,000 FEET WITH NO
SIGNIFICANT WEATHER AND/OR OBSTRUCTIONS TO VISIBILITY.

WIZ001-002-006>008-014>016-023>028-210500-
NORTHWEST WISCONSIN

CITY           SKY/WX    TMP DP  RH WIND       PRES   REMARKS
SUPERIOR ARPT  CLOUDY    36  28  74 SW10      29.31R WCI  28
ASHLAND        CLOUDY    41  27  57 SW13      29.30F
HAYWARD        CLOUDY    41  27  57 SW12G20   29.35F
SIREN          CLOUDY    40  28  61 W8        29.40R WCI  34
CUMBERLAND     PTCLDY    36  28  75 SW9       29.41S WCI  29
RICE LAKE      PTCLDY    40  29  65 SW8       29.43S WCI  34
CHETEK         PTCLDY    40  30  66 SW9       29.43R WCI  34
LADYSMITH      CLOUDY    39  30  69 SW8       29.41F WCI  34
EAU CLAIRE     NOT AVBL
MENOMONIE      CLEAR     43  28  55 SW9       29.46S
NEW RICHMOND   PTCLDY    39  27  60 SW10      29.45S WCI  32
OSCEOLA        CLOUDY    40  28  61 SW10      29.47S WCI  34
$$

WIZ003>005-009-010-017-018-210500-
NORTH CENTRAL WISCONSIN

CITY           SKY/WX    TMP DP  RH WIND       PRES   REMARKS
MANITOWISH WTR CLOUDY    38  31  77 SW12G18   29.32R WCI  30
ARBOR VITAE    CLOUDY    42  32  69 W12G18    29.34R
WOODRUFF       CLOUDY    42  32  69 W12G18    29.34R
RHINELANDER    CLEAR     40  31  70 SW14G22   29.36S WCI  32
EAGLE RIVER    CLEAR     38  29  70 SW13      29.33R WCI  30
LAND O LAKES   CLOUDY    38  30  72 SW10      29.33R WCI  32
PHILLIPS       CLOUDY    38  30  72 SW8G17    29.37S WCI  32
TOMAHAWK       CLEAR     40  30  67 SW7       29.37F WCI  35
MEDFORD        CLEAR     40  29  66 W12       29.40S WCI  33
MERRILL        CLEAR     40  31  69 W10       29.40S WCI  34
$$

WIZ029-030-035-036-043>047-210500-
CENTRAL WISCONSIN

CITY           SKY/WX    TMP DP  RH WIND       PRES   REMARKS
WAUSAU         CLEAR     42  30  62 SW10      29.40F
MOSINEE        NOT AVBL
MARSHFIELD     CLEAR     43  28  55 SW14      29.42S
STEVENS POINT  CLOUDY    45  29  53 SW13G24   29.44F
WAUPACA        PTCLDY    49  30  48 SW9       29.46S
WAUTOMA        CLEAR     49  29  46 SW14        N/A
WISC RAPIDS    PTCLDY    47  30  51 SW12      29.47S
CAMP DOUGLAS   NOT AVBL
$$

WIZ011>013-019>022-031-037>040-048>050-210500-
NORTHEAST WISCONSIN

CITY           SKY/WX    TMP DP  RH WIND       PRES   REMARKS
ANTIGO         CLEAR     40  31  71 SW16      29.38F WCI  31
SHAWANO        CLEAR     46  32  56 SW7       29.41F
OCONTO         PTCLDY    47  32  56 SW12G20   29.41F
STURGEON BAY   CLOUDY    49  33  54 SW23G29   29.41F
GREEN BAY      CLOUDY    47  35  63 SW14G24   29.44F
MANITOWOC      MOCLDY    51  31  46 SW22G31   29.48F
APPLETON       PTCLDY    45  28  53 SW17G23   29.44F
CLINTONVILLE   CLEAR     45  30  57 SW9       29.43S
OSHKOSH        CLEAR     47  33  58 SW18G28   29.46F
$$

WIZ032>034-041-042-053>061-210500-
SOUTHWEST WISCONSIN

CITY           SKY/WX    TMP DP  RH WIND       PRES   REMARKS
LA CROSSE      CLEAR     50  29  44 SW15G23   29.52R
SPARTA         PTCLDY    49  30  47 W7        29.52R
VIROQUA        CLEAR     46  32  57 SW13      29.54R
BOSCOBEL       PTCLDY    50  30  46 SW9       29.57R
PRAIRIE DU CHI PTCLDY    51  28  42 SW6       29.57S
PLATTEVILLE    PTCLDY    49  33  54 SW18      29.60S
$$

WIZ056-057-062-063-064-067-068-210500-
SOUTH CENTRAL WISCONSIN

CITY           SKY/WX    TMP DP  RH WIND       PRES   REMARKS
REEDSBURG      PTCLDY    49  30  48 SW13G21   29.52S
BARABOO/DELLS  PTCLDY    48  29  47 SW16G23   29.51F
LONE ROCK      CLEAR     50  32  50 SW10G17   29.56R
MINERAL POINT  PTCLDY    48  32  53 SW15G24   29.57S
MADISON        CLOUDY    49  32  52 SW9G21    29.56S
MIDDLETON      CLOUDY    50  31  48 SW16G23   29.56S
WATERTOWN      CLOUDY    48  32  54 S20G28    29.57S
MONROE         PTCLDY    45  32  61 S22G28    29.59F
JANESVILLE     CLOUDY    50  32  50 SW21      29.62F
$$

WIZ051-052-058>065-066-070>072-210500-
SOUTHEAST WISCONSIN

CITY           SKY/WX    TMP DP  RH WIND       PRES   REMARKS
MILWAUKEE      CLOUDY    48  32  53 SW23G36   29.60F
WAUKESHA       PTCLDY    45  32  61 SW17G29   29.60F
MILWAUKEE/TIMM CLOUDY    46  30  53 SW17G26   29.59F
RACINE         CLOUDY    47  32  56 SW20G33   29.64F
BURLINGTON     MOCLDY    45  37  75 SW20G26   29.63F
KENOSHA        CLOUDY    47  30  51 SW22G35   29.63F
FOND DU LAC    CLEAR     48  31  51 SW21G29   29.50F
SHEBOYGAN      PTCLDY    49  33  54 SW17G28   29.51F
WEST BEND      PTCLDY    46  30  53 SW22G28   29.54F
JUNEAU         PTCLDY    46  32  58 S24G30    29.55F
$$

LSZ147-162-210500-
LAKE SUPERIOR

STATION/POSITION TIME  TEMP    WIND        PRES    WAVE
                       AIR SEA DIR/SP/G            HT/PER
                 (UTC) (F)     (DEG/KT/KT) (MB)    (FT/S)
DEVILS ISLAND    0300   41     230/ 24/ 28  990.9F
SAXON HARBOR     0330   44     210/ 10/ 16  992.2S
$$

LMZ867-665-643>646-210500-
LAKE MICHIGAN

STATION/POSITION TIME  TEMP    WIND        PRES    WAVE
                       AIR SEA DIR/SP/G            HT/PER
                 (UTC) (F)     (DEG/KT/KT) (MB)    (FT/S)
N MID LAKE BUOY  0250   49 48  200/ 29/ 33  996.4F  10/ 8
NORTHPORT PIER   0340   45     170/  5/ 10  995.6F
KEWAUNEE LAKESHO 0330   52     220/ 13/ 28  997.2F
SHEBOYGAN LAKESH 0300   51     210/ 25/ 28  999.7F
PORT WASHINGTON  0330   51     220/ 11/ 18 1002.0F
MILWAUKEE LAKESH 0340   48     220/ 21/ 26   N/A
S MID LAKE BUOY  0250   48 48  230/ 27/ 35 1005.0F   9/ 7
KENOSHA   LAKESH 0300   48     210/ 15/ 29 1004.4
$$

TC  - TEMPERATURE IN CELSIUS
VSB - VISIBILITY IN STATUTE MILES
WCI - WIND CHILL INDEX
HX  - HEAT INDEX




USA.gov is the U.S. government's official web portal to all federal, state and local government web resources and services.